TIME,DELAY(SENSOR),PRES,T(CTD),SAL,OXYGEN,RAWTEMP,T(OPTODE),TCPHASE,FLUOR,BETA(BETA700),BETA(BETA412),BETA(BETA440),CDOM,C(CSC),ED(ED411.90),ED(ED443.80),ED(ED489.40),ED(ED554.70),LU(LU412.20),LU(LU443.80),LU(LU489.40),LU(LU555.00),COMP,TILTX,TILTX(TILTY),CHECK
1373902277,5804,496.5499877929687500,17.4930000305175780,36.4519004821777340,217.1264953613281200,171.9425048828125000,17.4944000244140620,31.8650608062744140,51,116,77,75,64,9937,2146961773,2147516562,2147272265,2147457691,2147073618,2146953590,2147651300,2147126774,955,-1,8,32161
1373902392,5806,485.5400085449219000,17.6142997741699220,36.4754981994628900,219.9317016601562500,167.9584960937500000,17.6146106719970700,31.6623191833496100,52,117,77,75,63,9943,2146959734,2147516589,2147268480,2147459364,2147073938,2146960155,2147650349,2147126546,658,-2,8,57894
1373902510,5806,474.4100036621094000,17.7318992614746100,36.4968986511230500,221.7639007568359400,164.2091064453125000,17.7277698516845700,31.5159492492675780,51,117,75,76,65,9937,2146957842,2147516672,2147267200,2147455323,2147073499,2146953929,2147645741,2147127570,3208,-1,8,52576
1373902637,5806,462.6600036621094000,17.8288993835449220,36.5140991210937500,223.1936950683593800,160.8916015625000000,17.8279209136962900,31.3971996307373050,52,116,77,76,65,9938,2146961179,2147516443,2147269869,2147453888,2147077878,2146954742,2147648658,2147126784,2967,-1,8,46568
1373902766,5805,451.1099853515625000,17.9505996704101560,36.5395011901855500,225.0711975097656200,157.0272064208984400,17.9445991516113280,31.2489795684814450,53,114,77,76,64,9938,2146963684,2147514084,2147269668,2147451611,2147072164,2146956132,2147648685,2147128859,2116,-1,8,57909
1373902893,5805,440.4200134277344000,18.0062999725341800,36.5489006042480500,225.8764038085937500,155.1188964843750000,18.0022201538085940,31.1825408935546880,51,115,76,76,64,9939,2146961526,2147511771,2147268726,2147454381,2147072960,2146953444,2147648996,2147127424,1514,-1,8,28224
1373903032,5805,429.2500000000000000,18.0576992034912100,36.5537986755371100,225.6282043457031200,153.3928985595703000,18.0543498992919920,31.1716899871826170,52,115,76,77,65,9942,2146960813,2147512420,2147268809,2147451437,2147073938,2146956955,2147644105,2147126582,529,-2,8,61972
1373903174,5807,418.2099914550781000,18.1336994171142580,36.5499992370605500,226.7828979492187500,150.7913970947265600,18.1329307556152340,31.0781898498535160,52,115,77,76,63,9935,2146961325,2147518144,2147270070,2147451017,2147077741,2146956589,2147644653,2147128969,499,-2,8,7404
1373903313,5805,407.5299987792969000,18.2061004638671880,36.5564002990722660,229.7209014892578000,148.3925933837890600,18.2054004669189450,30.8997497558593750,51,115,77,76,64,9930,2146960000,2147514313,2147269440,2147450267,2147075840,2146954532,2147650267,2147126701,3250,-1,8,40011
1373903468,5807,393.7399902343750000,18.2672004699707030,36.5583992004394500,234.7465972900390600,146.4541015625000000,18.2639694213867200,30.6285705566406250,51,116,75,76,63,9937,2146959241,2147517193,2147268562,2147448795,2147081472,2146956672,2147643574,2147127762,363,-1,8,5242
1373903570,5807,383.0899963378906000,18.3222007751464840,36.5623016357421900,238.1251983642578000,144.7210998535156200,18.3163394927978500,30.4443798065185550,52,115,76,75,62,9933,2146960402,2147513453,2147269851,2147453485,2147075099,2146953252,2147648822,2147127552,3088,-1,8,44745
1373903673,5806,372.1499938964844000,18.3491992950439450,36.5578994750976560,240.9019012451172000,143.7749938964843800,18.3449306488037100,30.3012199401855470,51,114,76,76,63,9925,2146961316,2147516205,2147266934,2147450642,2147073216,2146958454,2147648868,2147124937,2342,-2,8,51755
1373903805,5807,359.7300109863281000,18.4169998168945300,36.5527000427246100,246.2597045898437500,141.4723052978515600,18.4145393371582030,30.0244102478027340,52,116,76,75,62,9940,2146958829,2147512466,2147268233,2147451428,2147077065,2146964672,2147651529,2147126354,1756,-1,8,40577
1373903944,5800,348.5599975585937500,18.4619998931884770,36.5573005676269500,247.4669952392578000,140.0778045654297000,18.4566898345947270,29.9513607025146500,52,116,76,76,62,9933,2146961380,2147515181,2147268827,2147451593,2147077586,2146954322,2147650368,2147128886,1690,-1,8,8111
1373904085,5804,337.5100097656250000,18.4876003265380860,36.5597000122070300,246.9830017089843800,139.1947937011718800,18.4833908081054700,29.9616699218750000,52,115,77,77,61,9933,2146961517,2147514468,2147269787,2147452041,2147077430,2146960960,2147652928,2147126482,1213,-2,8,26809
1373904224,5807,326.6900024414062500,18.5032005310058600,36.5597000122070300,247.3594055175781200,138.7053985595703000,18.4981803894042970,29.9381694793701170,52,117,76,75,62,9933,2146960950,2147517485,2147268571,2147448713,2147081142,2146959168,2147654738,2147128128,834,-1,8,26530
1373904372,5806,315.1300048828125000,18.5534992218017580,36.5626983642578100,247.5052032470703000,137.0587005615234400,18.5479793548584000,29.9100894927978500,52,117,76,76,61,9935,2146958153,2147515968,2147266614,2147450358,2147080320,2146961115,2147657517,2147128182,331,-1,8,8525
1373904499,5804,303.5799865722656000,18.6408004760742200,36.5675010681152340,244.8135986328125000,133.9494934082031200,18.6420001983642580,29.9915199279785160,52,117,76,75,63,9923,2146958153,2147517760,2147268333,2147450861,2147079305,2146962386,2147659529,2147130816,2880,-1,8,33081
1373904614,5799,292.5199890136719000,18.7996997833251950,36.5770988464355500,240.5408020019531200,128.7507019042968800,18.7992801666259770,30.1200504302978500,52,119,76,77,62,9935,2146960585,2147512274,2147269842,2147447625,2147083492,2146969910,2147672457,2147128274,2462,-2,8,35315
1373904732,5802,280.6600036621094000,19.0238990783691400,36.6016998291015600,230.6454925537109400,121.0886001586914000,19.0312004089355470,30.4909191131591800,52,117,76,75,65,9934,2146960886,2147516416,2147271204,2147448475,2147083044,2146968329,2147672905,2147128704,2490,-1,8,27555
1373904835,5808,269.9100036621094000,19.1765003204345700,36.6015014648437500,230.0639038085937500,116.5076980590820300,19.1699295043945300,30.4588603973388670,53,117,77,77,64,9924,2146958710,2147513627,2147270902,2147450441,2147086235,2146977188,2147683730,2147129801,1909,-1,8,30806
1373904938,5804,259.1600036621094000,19.2823009490966800,36.6046981811523440,231.9275970458984400,112.9164962768554700,19.2787303924560550,30.3209095001220700,52,118,75,77,63,9925,2146959286,2147515108,2147267264,2147447012,2147085193,2146985060,2147697856,2147130322,2122,-2,8,29175
1373905070,5806,247.6399993896484400,19.4200000762939450,36.6063003540039060,233.1385040283203000,108.3539962768554700,19.4170093536376950,30.2024497985839840,54,116,77,74,64,9923,2146958848,2147514697,2147269147,2147446765,2147084745,2146999597,2147717467,2147132086,1761,-1,9,23643
1373905247,5803,236.9199981689453000,19.6348991394042970,36.6184005737304700,234.3627014160156200,101.4332962036132800,19.6268901824951170,30.0532207489013670,53,117,76,76,63,9932,2146959990,2147515593,2147271771,2147448118,2147087433,2147012278,2147742272,2147132498,3363,-1,9,2753
1373905418,5804,225.3399963378906200,19.8435001373291000,36.6212005615234400,238.5765991210937500,94.6300201416015600,19.8333606719970700,29.7663402557373050,55,117,77,75,63,9918,2146960393,2147518061,2147271634,2147443648,2147088832,2147037760,2147782436,2147136704,2555,-1,8,41479
1373905557,5804,214.3800048828125000,20.1063995361328120,36.6455001831054700,236.2068939208984400,85.5960006713867200,20.1077709197998050,29.7602005004882800,53,117,75,76,63,9924,2146958985,2147513965,2147270829,2147444150,2147096630,2147079030,2147843465,2147140598,2846,-1,9,9694
1373905689,5804,203.2899932861328000,20.6005992889404300,36.7046012878418000,221.5124053955078000,69.0753631591796900,20.6103591918945300,30.2617702484130860,53,117,75,77,64,9923,2146962048,2147517394,2147273700,2147443136,2147103762,2147130304,2147924178,2147145700,3262,-2,9,31048
1373905753,5807,197.2500000000000000,20.7110996246337900,36.7066001892089840,217.3011932373047000,65.1811904907226600,20.7289905548095700,30.4259109497070300,53,117,76,75,64,9930,2146958930,2147521380,2147275254,2147444918,2147112365,2147173165,2147982336,2147148745,2657,-1,8,35357
1373905808,5805,192.2100067138672000,20.9111995697021500,36.7022018432617200,218.9868927001953000,59.3532104492187500,20.9066390991210940,30.2633094787597660,54,121,77,76,62,9933,2146962139,2147521892,2147277842,2147442166,2147119689,2147214454,2148038939,2147153225,1675,-2,8,37344
1373905863,5805,187.1799926757812500,20.9566001892089840,36.7029991149902340,220.7277984619140600,57.7742385864257800,20.9547901153564450,30.1543598175048830,55,118,78,76,64,9917,2146958957,2147523337,2147279213,2147438985,2147129225,2147266587,2148106624,2147155849,1091,-2,9,62296
1373905943,5803,180.2299957275390600,21.1149005889892580,36.6819992065429700,226.8410034179687500,52.8956985473632800,21.1036491394042970,29.7868194580078120,54,122,76,76,63,9916,2146963328,2147525878,2147282230,2147438994,2147152493,2147347931,2148214573,2147168109,569,-1,7,64085
1373905998,5808,175.9499969482422000,21.3290004730224600,36.6887016296386700,227.6894073486328000,45.4207801818847660,21.3319301605224600,29.6492805480957030,55,121,75,77,63,9927,2146962139,2147528640,2147283346,2147439570,2147168804,2147411648,2148298313,2147168621,914,-2,9,17495
1373906053,5806,171.7599945068359400,21.4818000793457030,36.6924018859863300,227.1578063964843800,40.7933311462402340,21.4733791351318360,29.6156597137451170,57,120,77,77,63,9921,2146964361,2147531227,2147287213,2147434971,2147186139,2147476150,2148388123,2147178733,807,-2,9,22707
1373906108,5805,167.8399963378906200,21.6277008056640620,36.6828002929687500,226.2774963378906200,35.4233512878418000,21.6376495361328120,29.5895500183105470,58,123,77,76,62,9920,2146965184,2147531501,2147294902,2147438564,2147206893,2147545206,2148477613,2147180662,660,-2,8,28266
1373906163,5805,164.1399993896484400,21.7126007080078120,36.6832008361816400,227.4084930419922000,33.2010917663574200,21.7056694030761720,29.5062904357910160,58,123,76,76,63,9918,2146963117,2147532992,2147294080,2147437330,2147229814,2147622893,2148580406,2147189257,892,-1,8,45658
1373906247,5806,158.9299926757812500,21.8441009521484380,36.6856994628906250,227.3800964355468800,28.6383495330810550,21.8454093933105470,29.4491901397705080,61,125,76,78,62,9914,2146966144,2147536704,2147296978,2147435318,2147277330,2147751689,2148744557,2147201810,1427,-2,9,22870
1373906314,5805,155.6300048828125000,21.8885993957519530,36.6925010681152340,225.5164947509765600,27.0804195404052730,21.8931407928466800,29.5199508666992200,61,123,77,76,62,9913,2146967049,2147534738,2147297984,2147437110,2147286875,2147758784,2148729645,2147200210,1205,-1,8,18490
1373906405,5804,151.3999938964843800,21.9122009277343750,36.6845016479492200,224.6385955810547000,26.6184806823730470,21.9073009490966800,29.5570106506347660,62,125,75,76,62,9913,2146970779,2147547638,2147311442,2147435702,2147365851,2147994121,2149049216,2147221476,1203,-1,9,61895
1373906484,5804,147.7500000000000000,21.9307994842529300,36.6651992797851560,225.6114959716797000,25.7578392028808600,21.9336795806884770,29.4986190795898440,64,129,78,78,63,9910,2146968768,2147548553,2147317101,2147433600,2147424329,2148121344,2149202806,2147232704,1418,-1,8,731
1373906578,5804,143.5399932861328000,22.1562995910644530,36.6641998291015600,226.5238037109375000,18.8456707000732420,22.1456699371337900,29.3658103942871100,70,133,78,77,63,9889,2146975341,2147554486,2147327497,2147433289,2147511963,2148316635,2149440301,2147247515,1925,-2,9,51487
1373906669,5802,139.8000030517578000,22.3668994903564450,36.6691017150878900,225.6634979248047000,11.9340000152587890,22.3579006195068360,29.3195896148681640,77,131,77,78,60,9878,2146976749,2147557156,2147332946,2147432384,2147606162,2148515785,2149687094,2147266797,2527,-2,9,57784
1373906784,5805,135.7500000000000000,22.5184993743896500,36.6789016723632800,225.1961059570312500,7.6026678085327150,22.4910297393798830,29.2870998382568360,77,135,79,78,62,9876,2146981613,2147566537,2147343606,2147431030,2147734710,2148779053,2149997540,2147290825,3003,-1,9,23239
1373906888,5804,131.7700042724609400,22.7367000579834000,36.6838989257812500,224.7501068115234400,-0.1110344976186752,22.7283802032470700,29.2108306884765620,75,131,77,77,62,9882,2146988608,2147573540,2147362706,2147431542,2147889033,2149070107,2150351433,2147322340,3370,-1,9,13917
1373906991,5804,127.6500015258789000,22.9270000457763670,36.6976013183593750,222.1773071289062500,-6.1559729576110840,22.9146194458007800,29.2604007720947270,84,134,77,79,62,9867,2146992146,2147588050,2147374253,2147430656,2148065526,2149387437,2150745371,2147351305,911,-2,9,6986
1373907106,5803,124.1900024414062500,23.0503997802734380,36.7150001525878900,214.7272949218750000,-10.2132101058959960,23.0397396087646500,29.5835208892822270,86,133,77,79,63,9865,2146998774,2147597348,2147389933,2147433170,2148253321,2149715986,2151134573,2147392859,1119,-1,9,50825
1373907227,5807,119.2500000000000000,23.1357002258300780,36.6884994506835940,217.2765045166015600,-13.0070695877075200,23.1259593963623050,29.4179496765136720,94,137,76,79,63,9843,2147013485,2147618185,2147419291,2147434349,2148677531,2150412068,2151935689,2147466788,1911,-1,9,17525
1373907306,5805,115.6500015258789000,23.2621002197265620,36.6519012451171900,220.8303985595703000,-16.8894405364990230,23.2458496093750000,29.1907405853271500,102,141,78,81,62,9831,2147035638,2147643757,2147454381,2147431954,2149122331,2151127762,2152722230,2147541129,2450,-2,9,59696
1373907409,5802,111.6999969482421900,23.3066997528076170,36.5447006225585940,235.1372070312500000,-18.8092899322509770,23.3051700592041000,28.4838294982910160,101,147,79,81,62,9797,2147061952,2147681508,2147497472,2147433344,2149759524,2152096146,2153795904,2147645632,2201,-1,9,56811
1373907539,5804,108.3199996948242200,23.4522991180419920,36.5227012634277340,260.2236022949219000,-23.0169906616210940,23.4352607727050780,27.3474693298339840,81,136,78,80,58,9830,2147095798,2147727689,2147560082,2147436443,2150581933,2153351771,2155053979,2147756854,2926,-1,9,49326
1373907828,5805,104.2900009155273400,23.7602005004882800,36.5474014282226560,269.6705932617187500,-32.4125404357910160,23.7261390686035160,26.8571796417236330,81,136,79,80,60,9836,2147155611,2147811867,2147649252,2147444297,2152100306,2155626752,2157170176,2147951085,3262,-2,9,17121
1373908027,5809,100.5699996948242200,24.0821990966796880,36.5001983642578100,280.3375854492187500,-43.0913200378418000,24.0574607849121100,26.3233394622802730,74,131,77,78,60,9834,2147204086,2147883373,2147717924,2147446089,2153658688,2158067108,2159444379,2148158281,2613,-1,9,21337
1373908112,5807,98.5000000000000000,24.2458000183105470,36.4763984680175800,277.5600891113281000,-48.5394897460937500,24.2267799377441400,26.3620796203613280,71,131,77,80,60,9841,2147255424,2147943890,2147777261,2147447076,2154849325,2159788763,2160952512,2148299867,2606,-1,9,25881
1373908167,5806,96.2200012207031200,24.3029003143310550,36.4679985046386700,280.8346862792969000,-50.5909194946289060,24.2905998229980470,26.2155895233154300,70,133,78,80,61,9840,2147298788,2148000448,2147834706,2147446564,2155960009,2161390272,2162328576,2148426029,2578,-2,9,22943
1373908222,5805,94.2099990844726600,24.4503002166748050,36.4495010375976560,285.5606079101562500,-54.8531188964843750,24.4232692718505860,25.9918098449707030,71,135,78,80,60,9841,2147339584,2148051657,2147890998,2147452397,2157041654,2162901860,2163628096,2148549961,2897,-2,9,33725
1373908277,5803,92.9800033569336000,24.4734992980957030,36.4490013122558600,296.2197875976562500,-55.9926681518554700,24.4587707519531250,25.5999908447265620,68,133,77,79,60,9836,2147362459,2148083044,2147922349,2147452306,2157674496,2163752804,2164310793,2148625920,3311,-2,9,37618
1373908446,5805,91.3000030517578100,24.7362995147705080,36.3927001953125000,316.2763977050781000,-63.7421684265136700,24.7003898620605470,24.8386707305908200,67,138,78,79,58,9835,2147431862,2148162688,2147999021,2147456182,2159359460,2166063414,2166157028,2148785298,2699,-1,9,12303
1373908561,5808,89.7099990844726600,25.0641002655029300,36.3432998657226560,345.2164001464844000,-73.4501571655273400,25.0037002563476560,23.8410606384277340,66,138,78,80,59,9837,2147484662,2148226898,2148067556,2147461970,2160620873,2167750372,2167532370,2148908534,307,-1,9,21867
1373908789,5805,87.5100021362304700,25.2206993103027340,36.3264999389648440,348.1090087890625000,-79.8617401123046900,25.2043991088867200,23.6843109130859380,65,134,78,81,58,9834,2147580672,2148337792,2148154441,2147461705,2163001115,2170860086,2169858706,2149114477,177,-1,9,57755
1373908952,5806,85.6399993896484400,25.4617004394531250,36.3465995788574200,353.2109069824219000,-87.0895080566406200,25.4310398101806640,23.4566097259521500,64,135,78,81,60,9837,2147661339,2148419876,2148202166,2147463140,2165005174,2173450834,2171833453,2149286116,2806,-1,9,62799
1373909062,5801,83.0999984741211000,25.5361995697021500,36.3087005615234400,343.2586975097656000,-90.3687133789062500,25.5340003967285160,23.7058696746826170,64,134,78,80,60,9831,2147800749,2148581485,2148359296,2147474569,2168795584,2178286866,2175516644,2149627986,3445,-1,9,39492
1373909129,5806,81.2500000000000000,25.5774993896484380,36.2709999084472660,350.5008850097656000,-91.6727066040039000,25.5749702453613280,23.4819297790527340,63,138,78,82,60,9818,2147920713,2148713088,2148482843,2147477677,2171563702,2181665170,2177973494,2149857014,243,-1,9,38184
1373909220,5808,79.4100036621093800,25.6805000305175780,36.2524986267089840,373.2813110351562500,-94.8479537963867200,25.6747798919677730,22.8182506561279300,63,136,79,82,58,9816,2148058048,2148867291,2148614171,2147487341,2175156114,2186015533,2181173997,2150149860,810,-1,9,55833
1373909341,5804,76.6299972534179700,25.9260997772216800,36.2598991394043000,354.8469848632812500,-102.5742034912109400,25.9179897308349600,23.2357406616210940,63,138,79,82,58,9823,2148298825,2149110930,2148821696,2147503094,2181086811,2192918482,2186114953,2150624941,696,-1,9,43779
1373909396,5808,74.3600006103515600,26.1317005157470700,36.2253990173339840,359.6182861328125000,-108.5411987304687500,26.1061592102050780,23.0355491638183600,61,138,80,80,59,9821,2148230820,2148990390,2148652160,2147489764,2179145106,2189030866,2181818121,2150214125,922,-1,8,40908
1373909451,5809,72.7900009155273400,26.1389007568359380,36.2216987609863300,380.7041931152344000,-109.4313964843750000,26.1342506408691400,22.4602794647216800,61,139,78,81,57,9817,2148608374,2149432137,2149079908,2147514797,2188857536,2202122560,2192970386,2151288402,1026,-1,9,25270
1373909530,5800,71.4899978637695300,26.1741008758544920,36.2103996276855500,437.9508056640625000,-110.3539962768554700,26.1633796691894530,21.0711097717285160,62,136,79,82,59,9811,2148692114,2149506779,2149099044,2147512329,2191067538,2204599131,2194611373,2151445211,1379,-1,9,47950
1373909686,5804,69.5999984741211000,26.4472007751464840,36.1702003479003900,387.0589904785156000,-119.2947998046875000,26.4460296630859380,22.1871395111084000,61,135,77,82,59,9816,2148954624,2149746130,2149277056,2147524214,2197928649,2212120475,2199626724,2151910189,1418,-1,9,47438
1373909837,5804,67.4700012207031200,26.4955005645751950,36.1582984924316400,390.8819885253906000,-121.0008010864257800,26.5000400543212900,22.0712795257568360,60,139,78,82,58,9816,2149276672,2150057206,2149550189,2147553737,2205998427,2220597266,2205004480,2152430701,723,-2,9,51276
1373909958,5806,65.0899963378906200,26.6844005584716800,36.1161003112793000,387.1926879882812500,-126.7798004150390600,26.6831893920898440,22.1007595062255860,59,137,79,82,57,9806,2149604461,2150373248,2149802148,2147574866,2214858221,2230318345,2211734226,2153146596,706,-1,8,12275
1373910025,5805,62.8499984741210940,26.8239002227783200,36.1176986694335940,396.3091125488281000,-130.9595947265625000,26.8158397674560550,21.8255805969238280,59,133,76,81,55,9111,2149889243,2150630454,2149990555,2147592704,2222603053,2238471094,2217021193,2153715346,562,-2,9,47409
1373910080,5803,61.0099983215332000,26.8341999053955080,36.1142005920410160,395.6416015625000000,-131.8495025634765600,26.8441009521484380,21.8323192596435550,58,131,78,80,59,9819,2150129609,2150832128,2150052507,2147576603,2229014665,2245476763,2221726930,2154187666,3149,-2,9,23048
1373910147,5804,58.9900016784668000,26.9862003326416000,36.0961990356445300,385.1972045898437500,-136.2633972167968800,26.9843902587890620,22.0466194152832030,59,131,76,80,59,2664,2150329920,2151046756,2150331044,2147633261,2235300644,2251965421,2226366052,2154794130,814,-1,8,51604
1373910268,5805,57.1199989318847660,27.0851001739501950,36.0920982360839840,414.8418884277344000,-140.8399963378906200,27.1300392150878900,21.2688407897949220,59,136,77,81,58,9802,2150689965,2151341129,2150423616,2147607241,2244223332,2261552704,2232592182,2155467035,3074,-2,9,31920
1373910335,5803,54.9799995422363300,27.2336006164550780,36.0731010437011700,429.7951049804687500,-144.1013031005859400,27.2339401245117200,20.8871803283691400,58,132,78,82,57,8667,2151045458,2151648146,2150637302,2147620827,2253955657,2271455808,2239054052,2156273856,2967,-1,9,38456
1373910490,5806,51.2700004577636700,27.5147991180419920,36.0376014709472660,431.3865966796875000,-152.5773010253906200,27.5044498443603500,20.7588596343994140,58,131,76,80,56,2581,2151753014,2152280941,2151086427,2147661604,2274502272,2292362048,2253121334,2158186989,2264,-2,9,25690
1373910580,5805,49.2500000000000000,27.7145004272460940,36.0551986694335940,464.4627075195312500,-159.0482025146484400,27.7114295959472660,19.9705200195312500,59,132,79,81,55,5112,2152205906,2152680393,2151377298,2147690752,2286417124,2304646326,2261459373,2159323529,2411,-2,8,1738
1373910625,5807,47.6300010681152340,27.7982006072998050,36.0671005249023440,437.4854125976562500,-161.8329010009765600,27.8006305694580080,20.5216197967529300,58,133,77,79,55,8207,2152484214,2152913682,2151548443,2147715026,2293925430,2311460854,2265728886,2160117732,2098,-1,9,34930
1373910682,5802,45.7400016784668000,27.8448009490966800,36.0723991394043000,433.1119079589844000,-163.5863952636718800,27.8568305969238280,20.6002693176269530,57,127,77,81,55,21,2152901513,2153329426,2152013851,2147852260,2306499264,2323776676,2274088493,2161508809,1184,-2,9,8816
1373910751,5807,43.8400001525878900,27.8708992004394530,36.0741004943847660,456.0635986328125000,-164.4512023925781200,27.8845596313476560,20.0893096923828120,57,128,77,78,58,902,2153372169,2153735954,2152349988,2147946422,2320541824,2337653632,2283165010,2163031286,1010,-1,9,39747
1373910832,5806,41.6100006103515600,27.9188003540039060,36.0772018432617200,455.0870971679687500,-165.9270019531250000,27.9319000244140620,20.0941505432128900,56,127,75,81,53,0,2153913371,2154174290,2152652297,2148012946,2335591789,2351696320,2291054902,2164525577,1027,-2,9,48453
1373910894,5806,39.6399993896484400,27.9326000213623050,36.0806007385253900,437.8026123046875000,-166.4100036621093800,27.9473991394042970,20.4648990631103500,56,127,75,80,60,9537,2154513581,2154698669,2153034651,2148082084,2352523739,2368209526,2301953984,2166179556,1009,-1,9,41837
1373910939,5802,37.5800018310546900,27.9328002929687500,36.0814018249511700,435.6158142089844000,-166.5561981201172000,27.9520893096923830,20.5119209289550780,55,125,77,79,57,6348,2155086555,2155181001,2153392073,2148194880,2369505682,2384126326,2311547273,2168130112,897,-2,9,32217
1373910984,5805,35.3300018310546900,27.9405994415283200,36.0806999206543000,444.7803039550781000,-166.7658996582031200,27.9588203430175780,20.3074302673339840,55,126,75,81,56,9636,2155684653,2155664896,2153683675,2148253924,2386521426,2399888521,2321326976,2170353609,689,-1,8,38684